Latest Weather Observations for Frankston

IDV60901

Issued at 9:55 pm EST Saturday 20 September 2014 (issued every 10 minutes, with the page automatically refreshed every 10 minutes)

About weather observations | Map of Melbourne area stations | Latest observations for Melbourne area | Other Formats
Station Details ID: 086371 Name: FRANKSTON AWS Lat: -38.15 Lon: 145.12 Height: 6.0 m
Data from the previous 72 hours. | See also: Recent months at Frankston
Date/Time
EST
Tmp

°C
App
Tmp
°C
Dew
Point
°C
Rel
Hum
%
Delta-T

°C
Wind Press
QNH
hPa
Press
MSL
hPa
Rain
since
9 am
mm
Dir
 
Spd
km/h
Gust
km/h
Spd
kts
Gust
kts
20/09:30pm 11.4 9.8 8.1 80 1.6 S 6 9 3 5 - - -
20/09:00pm 11.1 9.9 8.0 81 1.5 SSE 4 6 2 3 - - -
20/08:30pm 11.1 8.8 7.6 79 1.7 S 9 17 5 9 - - -
20/08:00pm 11.8 10.1 7.5 75 2.1 S 6 9 3 5 - - -
20/07:30pm 11.6 9.8 7.1 74 2.2 S 6 9 3 5 - - -
20/07:00pm 12.2 10.5 7.5 73 2.3 SSW 6 11 3 6 - - -
20/06:30pm 12.3 10.4 7.6 73 2.3 S 7 13 4 7 - - -
20/06:00pm 12.5 10.2 7.6 72 2.4 S 9 15 5 8 - - -
20/05:30pm 12.8 10.2 7.7 71 2.5 S 11 20 6 11 - - -
20/05:00pm 13.0 10.3 7.5 69 2.7 S 11 22 6 12 - - -
20/04:30pm 13.5 10.5 7.9 69 2.8 SSW 13 22 7 12 - - -
20/04:00pm 13.6 10.1 7.4 66 3.0 S 15 26 8 14 - - -
20/03:30pm 13.6 10.1 7.4 66 3.0 SSW 15 26 8 14 - - -
20/03:00pm 13.6 11.1 8.0 69 2.8 S 11 19 6 10 - - -
20/02:30pm 13.5 9.3 7.3 66 3.0 SW 19 26 10 14 - - -
20/02:00pm 13.0 7.8 7.2 68 2.8 WSW 24 28 13 15 - - -
20/01:30pm 12.8 7.4 7.9 72 2.4 WSW 26 30 14 16 - - -
20/01:00pm 12.3 7.6 7.8 74 2.2 WSW 22 26 12 14 - - -
20/12:30pm 12.1 6.7 7.8 75 2.1 WSW 26 32 14 17 - - -
20/12:00pm 13.5 11.3 7.9 69 2.8 SSW 9 17 5 9 - - -
20/11:30am 13.5 10.5 7.5 67 2.9 SSW 13 20 7 11 - - -
20/11:00am 13.0 10.6 7.2 68 2.8 SW 9 15 5 8 - - -
20/10:30am 13.1 10.4 7.3 68 2.8 SSW 11 19 6 10 - - -
20/10:00am 13.3 10.3 7.5 68 2.8 SW 13 20 7 11 - - -
20/09:30am 13.1 11.4 8.2 72 2.4 S 7 15 4 8 - - -
20/09:00am 12.5 9.9 7.8 73 2.3 S 11 22 6 12 - - -
20/08:30am 12.2 10.5 8.5 78 1.8 S 7 17 4 9 - - -
20/08:00am 11.6 9.1 8.3 80 1.6 SW 11 19 6 10 - - -
20/07:30am 10.8 8.6 7.7 81 1.5 SW 9 15 5 8 - - -
20/07:00am 10.6 8.0 7.7 82 1.4 SSW 11 17 6 9 - - -
20/06:30am 10.1 8.2 7.5 84 1.2 SSW 7 13 4 7 - - -
20/06:00am 10.0 7.4 7.8 86 1.1 SW 11 17 6 9 - - -
20/05:30am 10.2 8.3 7.4 83 1.3 SSW 7 9 4 5 - - -
20/05:00am 10.1 7.7 7.2 82 1.4 SW 9 11 5 6 - - -
20/04:30am 10.5 7.1 6.1 74 2.0 SW 13 17 7 9 - - -
20/04:00am 10.6 8.5 6.0 73 2.1 S 6 9 3 5 - - -
20/03:30am 11.0 8.5 6.6 74 2.1 SSW 9 11 5 6 - - -
20/03:00am 10.6 8.6 6.2 74 2.0 SSW 6 9 3 5 - - -
20/02:30am 10.9 8.3 6.3 73 2.2 SSW 9 11 5 6 - - -
20/02:00am 10.8 8.8 6.2 73 2.1 S 6 7 3 4 - - -
20/01:30am 11.3 8.8 6.4 72 2.3 SW 9 13 5 7 - - -
20/01:00am 11.3 9.3 6.4 72 2.3 S 6 9 3 5 - - -
20/12:30am 11.1 9.2 6.5 73 2.2 S 6 9 3 5 - - -
20/12:00am 11.5 9.0 6.6 72 2.3 SW 9 11 5 6 - - -
 
Date/Time
EST
Tmp

°C
App
Tmp
°C
Dew
Point
°C
Rel
Hum
%
Delta-T

°C
Wind Press
QNH
hPa
Press
MSL
hPa
Rain
since
9 am
mm
Dir
 
Spd
km/h
Gust
km/h
Spd
kts
Gust
kts
19/11:30pm 11.4 8.8 6.1 70 2.5 SW 9 15 5 8 - - -
19/11:00pm 11.0 8.7 5.7 70 2.4 SSW 7 11 4 6 - - -
19/10:30pm 11.2 8.9 5.5 68 2.6 S 7 11 4 6 - - -
19/10:00pm 11.7 9.5 5.3 65 2.9 S 6 9 3 5 - - -
19/09:30pm 11.4 9.1 5.5 67 2.7 S 7 11 4 6 - - -
19/09:00pm 11.3 9.2 5.8 69 2.6 S 6 9 3 5 - - -
19/08:30pm 11.5 9.4 6.0 69 2.6 S 6 7 3 4 - - -
19/08:00pm 11.8 9.8 6.1 68 2.7 SSW 6 9 3 5 - - -
19/07:30pm 12.0 9.7 5.6 65 3.0 SSW 7 13 4 7 - - -
19/07:00pm 12.5 9.5 5.9 64 3.1 SW 11 17 6 9 - - -
19/06:30pm 12.7 8.9 5.6 62 3.3 SW 15 19 8 10 - - -
19/06:00pm 12.9 9.2 6.3 64 3.1 SW 15 22 8 12 - - -
19/05:30pm 12.8 8.0 7.5 70 2.6 WSW 22 26 12 14 - - -
19/05:00pm 12.8 8.0 7.5 70 2.6 WSW 22 26 12 14 - - -
19/04:30pm 12.9 8.1 7.4 69 2.7 WSW 22 28 12 15 - - -
19/04:00pm 12.8 8.0 7.5 70 2.6 WSW 22 26 12 14 - - -
19/03:30pm 12.9 7.2 6.9 67 2.9 WSW 26 30 14 16 - - -
19/03:00pm 12.9 7.7 7.4 69 2.7 WSW 24 30 13 16 - - -
19/02:30pm 12.8 8.3 6.8 67 2.9 WSW 20 24 11 13 - - -
19/02:00pm 13.8 8.7 6.2 60 3.6 WSW 22 30 12 16 - - -
19/01:30pm 12.8 6.8 7.0 68 2.8 WSW 28 35 15 19 - - -
19/01:00pm 12.7 7.9 5.8 63 3.2 WSW 20 24 11 13 - - -
19/12:30pm 11.4 7.3 8.6 83 1.4 W 20 26 11 14 - - -
19/12:00pm 11.7 7.5 8.4 80 1.6 W 20 24 11 13 - - -
19/11:30am 11.5 7.5 8.4 81 1.5 W 19 20 10 11 - - -
19/11:00am 11.4 7.8 8.3 81 1.5 WNW 17 22 9 12 - - -
19/10:30am 11.3 7.8 7.4 77 1.9 W 15 20 8 11 - - -
19/10:00am 10.8 7.5 8.2 84 1.3 W 15 17 8 9 - - -
19/09:30am 10.9 6.3 8.0 82 1.4 W 22 26 12 14 - - -
19/09:00am 11.1 6.3 7.4 78 1.8 W 22 26 12 14 - - -
19/08:30am 10.6 6.7 7.3 80 1.6 WNW 17 20 9 11 - - -
19/08:00am 10.7 6.9 7.6 81 1.5 W 17 19 9 10 - - -
19/07:30am 10.5 7.0 7.4 81 1.5 W 15 19 8 10 - - -
19/07:00am 10.4 6.2 7.5 82 1.4 WNW 19 22 10 12 - - -
19/06:30am 10.5 6.7 7.4 81 1.5 W 17 19 9 10 - - -
19/06:00am 10.5 6.3 7.6 82 1.4 W 19 20 10 11 - - -
19/05:30am 10.2 7.9 7.4 83 1.3 WSW 9 15 5 8 - - -
19/05:00am 9.5 7.5 7.1 85 1.1 SSW 7 13 4 7 - - -
19/04:30am 10.2 7.1 7.1 81 1.5 W 13 17 7 9 - - -
19/04:00am 9.9 6.0 7.3 84 1.2 W 17 19 9 10 - - -
19/03:30am 10.1 5.7 7.3 83 1.3 W 20 24 11 13 - - -
19/03:00am 9.8 5.0 7.4 85 1.1 W 22 26 12 14 - - -
19/02:30am 10.4 6.1 7.1 80 1.6 W 19 24 10 13 - - -
19/02:00am 10.5 6.2 7.2 80 1.6 W 19 26 10 14 - - -
19/01:30am 10.0 6.1 6.9 81 1.5 WNW 17 19 9 10 - - -
19/01:00am 10.0 6.2 7.4 84 1.2 WNW 17 20 9 11 - - -
19/12:30am 10.6 9.1 5.2 69 2.5 SW 2 11 1 6 - - -
19/12:00am 10.7 8.6 3.7 62 3.1 SSW 4 4 2 2 - - -
 
Date/Time
EST
Tmp

°C
App
Tmp
°C
Dew
Point
°C
Rel
Hum
%
Delta-T

°C
Wind Press
QNH
hPa
Press
MSL
hPa
Rain
since
9 am
mm
Dir
 
Spd
km/h
Gust
km/h
Spd
kts
Gust
kts
18/11:30pm 10.7 8.0 3.7 62 3.1 S 7 9 4 5 - - -
18/11:00pm 10.4 7.7 3.9 64 2.9 SSW 7 13 4 7 - - -
18/10:30pm 10.5 7.5 4.2 65 2.8 SSW 9 15 5 8 - - -
18/10:00pm 10.4 7.9 4.8 68 2.5 S 7 11 4 6 - - -
18/09:30pm 10.5 8.1 4.4 66 2.7 SSW 6 11 3 6 - - -
18/09:00pm 10.7 8.3 4.4 65 2.8 S 6 9 3 5 - - -
18/08:30pm 10.6 8.1 3.6 62 3.1 S 6 9 3 5 - - -
18/08:00pm 10.5 8.0 3.5 62 3.1 S 6 9 3 5 - - -
18/07:30pm 10.9 8.2 3.5 60 3.2 SSW 7 11 4 6 - - -
18/07:00pm 11.1 7.6 3.4 59 3.4 SSW 11 17 6 9 - - -
18/06:30pm 11.4 7.5 3.2 57 3.6 SW 13 20 7 11 - - -
18/06:00pm 11.9 8.0 3.4 56 3.8 SW 13 30 7 16 - - -
18/05:30pm 12.1 6.9 3.3 55 3.9 SW 20 30 11 16 - - -
18/05:00pm 12.1 5.3 3.3 55 3.9 WSW 28 35 15 19 - - -
18/04:30pm 12.2 6.7 5.8 65 3.0 WSW 24 35 13 19 - - -
18/04:00pm 11.9 4.8 5.3 64 3.0 WSW 32 43 17 23 - - -
18/03:30pm 11.8 5.9 5.7 66 2.8 WSW 26 35 14 19 - - -
18/03:00pm 10.9 3.6 7.0 77 1.9 WSW 35 41 19 22 - - -
18/02:30pm 11.6 4.9 5.5 66 2.8 WSW 30 37 16 20 - - -
18/02:00pm 11.7 4.8 4.7 62 3.2 WSW 30 35 16 19 - - -
18/01:30pm 11.7 5.2 4.7 62 3.2 WSW 28 33 15 18 - - -
18/01:00pm 11.9 8.6 6.2 68 2.7 SSW 13 22 7 12 - - -
18/12:30pm 11.7 4.8 4.7 62 3.2 WSW 30 41 16 22 - - -
18/12:00pm 10.5 4.8 6.5 76 1.9 W 26 35 14 19 - - -
18/11:30am 11.5 5.9 5.6 67 2.7 WSW 24 28 13 15 - - -
18/11:00am 11.0 4.4 4.2 63 3.0 WSW 28 37 15 20 - - -
18/10:30am 11.1 5.6 6.0 71 2.4 WSW 24 30 13 16 - - -
18/10:00am 10.5 4.2 5.5 71 2.3 WSW 28 35 15 19 - - -
18/09:30am 9.6 4.7 7.0 84 1.2 W 22 28 12 15 - - -
18/09:11am 9.3 3.1 6.0 80 1.5 W 28 33 15 18 - - -
18/09:00am 10.3 8.2 6.6 78 1.7 WSW 7 15 4 8 - - -
18/08:30am 9.8 4.8 6.5 80 1.5 W 22 30 12 16 - - -
18/08:00am 10.4 5.3 5.8 73 2.1 WSW 22 30 12 16 - - -
18/07:30am 9.8 5.7 6.3 79 1.6 W 17 22 9 12 - - -
18/07:00am 9.7 5.0 5.9 77 1.7 W 20 24 11 13 - - -
18/06:30am 9.4 6.8 4.0 69 2.4 SSW 7 11 4 6 - - -
18/06:00am 9.9 6.9 4.3 68 2.5 SW 9 15 5 8 - - -
18/05:30am 10.2 5.6 6.7 79 1.6 WSW 20 26 11 14 - - -
18/05:00am 10.0 4.6 6.5 79 1.6 W 24 30 13 16 - - -
18/04:30am 9.7 4.0 6.6 81 1.4 W 26 30 14 16 - - -
18/04:00am 9.8 5.2 6.7 81 1.5 W 20 28 11 15 - - -
18/03:30am 9.5 2.9 6.2 80 1.5 W 30 37 16 20 - - -
18/03:00am 9.8 4.5 6.9 82 1.4 W 24 28 13 15 - - -
18/02:30am 9.0 2.9 6.4 84 1.2 W 28 35 15 19 - - -
18/02:00am 9.0 5.7 6.4 84 1.2 SW 13 26 7 14 - - -
18/01:30am 9.7 3.1 6.1 78 1.7 W 30 41 16 22 - - -
18/01:00am 9.8 3.1 5.8 76 1.8 W 30 39 16 21 - - -
18/12:30am 10.1 3.4 5.7 74 2.0 W 30 37 16 20 - - -
18/12:00am 9.8 2.5 5.4 74 2.0 W 33 41 18 22 - - -
 
Date/Time
EST
Tmp

°C
App
Tmp
°C
Dew
Point
°C
Rel
Hum
%
Delta-T

°C
Wind Press
QNH
hPa
Press
MSL
hPa
Rain
since
9 am
mm
Dir
 
Spd
km/h
Gust
km/h
Spd
kts
Gust
kts
17/11:30pm 9.9 2.6 5.3 73 2.1 W 33 39 18 21 - - -
17/11:00pm 10.1 3.4 5.5 73 2.1 W 30 37 16 20 - - -
17/10:30pm 10.0 2.8 5.2 72 2.2 W 32 39 17 21 - - -
17/10:00pm 10.2 3.5 5.4 72 2.2 W 30 35 16 19 - - -

Latest Capital City Observations: Canberra | Sydney | Melbourne | Brisbane | Adelaide | Perth | Hobart | Darwin

Other Formats:

Comma delimited format used in spreadsheet applications
http://www.bom.gov.au/fwo/IDV60901/IDV60901.94871.axf

JavaScript Object Notation format (JSON) in row-major order
http://www.bom.gov.au/fwo/IDV60901/IDV60901.94871.json